Probability
0 0 0 0 0 0 0 0 0 0 0 0 0 0 0 0 0 0 0 0 0 0 0 0 0 0 0 0 0 0 0 0 0 0 0 0 0 0
0 0 0 0 0 0 0 0 0 0 0 0 0 0 0 0 0 0 0 0 0 0 0 0 0 0 0 0 0 0 0 0 0 0 0 0 0 0
0 0 0 0 0 0 0 0 0 0 0 0 0 0 0 0 0 0 0 0 0 0 0 0 0 0 0 0 0 0 0 0 0 0 0 0 0 0
0 0 0 0 0 0 0 0 0 0 0 0 0 0 0 0 0 0 0 0 0 0 0 0 0 0 0 0 0 0 0 0 0 0 0 0 0 0
0 0 0 0 0 0 0 0 0 0 0 0 0 0 0 0 0 0 0 0 0 0 0 0 0 0 0 0 0 0 0 0 0 0 0 0 0 0
0 0 0 0 0 0 0 0 0 0 0 0 0 0 0 0 0 0 0 0 0 0 0 0 0 0 0 0 0 0 0 0 0 0 0 0 0 0
1 1 1 0 0 0 0 0 0 0 0 0 0 0 0 0 0 0 0 0 0 0 0 0 0 0 0 0 0 0 0 0 0 0 0 0 0 0
1 2 1 0 0 0 0 0 0 0 0 0 0 0 0 0 0 0 0 0 0 0 0 0 0 0 0 0 0 0 0 0 0 0 0 0 0 0
1 2 2 1 0 0 0 0 0 0 0 0 0 0 0 0 0 0 0 0 0 0 0 0 0 0 0 0 0 0 0 0 0 0 0 0 0 0
0 1 1 1 0 0 0 0 0 0 0 0 0 0 0 0 0 0 0 0 0 0 0 0 0 0 0 0 0 0 0 0 0 0 0 0 0 0
0 0 0 0 0 0 0 0 0 0 0 0 0 0 0 0 0 0 0 0 0 0 0 0 0 0 0 0 0 0 0 0 0 0 0 0 0 0
0 0 0 0 0 0 0 0 0 0 0 0 0 0 0 0 0 0 0 0 0 0 0 0 0 0 0 0 0 0 0 0 0 0 0 0 0 0
0 0 0 0 0 0 0 0 0 0 0 0 0 0 0 0 0 0 0 0 0 0 0 0 0 0 0 0 0 0 0 0 0 0 0 0 0 0
0 0 0 0 0 0 0 0 0 0 0 0 0 0 0 0 0 0 0 0 0 0 0 0 0 0 0 0 0 0 0 0 0 0 0 0 0 0
0 0 0 0 0 0 0 0 0 0 0 0 0 0 0 0 0 0 0 0 0 0 0 0 0 0 0 0 0 0 0 0 0 0 0 0 0 0
0 0 0 0 0 0 0 0 0 0 0 0 0 0 0 0 0 0 0 0 0 0 0 0 0 0 0 0 0 0 0 0 0 0 0 0 0 0
0 0 0 0 0 0 0 0 0 0 0 0 0 0 0 0 0 0 0 0 0 0 0 0 0 0 0 0 0 0 0 0 0 0 0 0 0 0
0 0 0 0 0 0 0 0 0 0 0 0 0 0 0 0 0 0 0 0 0 0 0 0 0 0 0 0 0 0 0 0 0 0 0 0 0 0
0 0 0 0 0 0 0 0 0 0 0 0 0 0 0 0 0 0 0 0 0 0 0 0 0 0 0 0 0 0 0 0 0 0 0 0 0 0
0 0 0 0 0 0 0 0 0 0 0 0 0 0 0 0 0 0 0 0 0 0 0 0 0 0 0 0 0 0 0 0 0 0 0 0 0 0
0 0 0 0 0 0 0 0 0 0 0 0 0 0 0 0 0 0 0 0 0 0 0 0 0 0 0 0 0 0 0 0 0 0 0 0 0 0
0 0 0 0 0 0 0 0 0 0 0 0 0 0 0 0 0 0 0 0 0 0 0 0 0 0 0 0 0 0 0 0 0 0 0 0 0 0
0 0 0 0 0 0 0 0 0 0 0 0 0 0 0 0 0 0 0 0 0 0 0 0 0 0 0 0 0 0 0 0 0 0 0 0 0 0
Wind_Speed
5 4 3 2 2 2 2 3 3 3 4 3 2 2 1 1 3 2 3 6 7 7 7 7 8 8 9 9 10 10 10 11 12 12 13 14 14 13
4 4 3 2 1 1 1 1 1 2 3 2 2 1 2 2 3 2 3 7 7 7 7 7 7 8 8 8 9 9 10 11 12 12 13 13 14 13
4 5 4 3 2 2 1 1 1 1 2 2 2 1 1 2 3 2 3 3 4 7 7 7 7 8 8 8 9 9 10 10 11 11 12 12 13 14
5 5 4 3 3 2 2 1 1 1 2 2 2 2 2 2 3 3 3 3 3 6 8 7 7 7 7 8 8 9 9 10 10 11 12 12 13 14
6 6 5 4 3 2 2 2 1 1 1 1 2 1 2 2 2 3 3 3 4 5 6 6 7 8 8 8 9 9 9 9 10 11 11 12 12 13
5 5 5 5 5 4 3 3 2 1 1 1 1 1 2 2 1 2 3 3 3 4 4 5 7 8 8 9 9 9 10 10 10 11 11 11 11 12
4 4 4 5 5 4 3 3 3 2 1 1 1 1 2 2 2 2 3 4 4 2 2 3 4 3 5 7 8 9 10 10 10 11 11 11 11 11
5 4 4 4 5 4 4 4 4 3 3 2 2 2 3 3 2 2 3 3 3 2 3 4 3 3 4 4 8 10 9 9 10 11 11 12 12 11
5 5 3 4 4 3 3 2 1 3 3 3 3 3 3 3 3 3 3 3 4 3 3 4 3 3 4 6 10 9 8 9 11 11 11 11 11 11
3 4 5 4 4 4 3 2 1 1 2 2 2 3 3 3 3 3 3 2 2 2 1 3 3 3 4 4 8 8 9 10 10 11 12 12 11 12
2 2 4 4 5 5 4 3 1 1 1 1 1 1 2 3 2 1 1 2 3 2 1 2 3 4 4 3 4 8 9 10 11 12 12 12 12 11
2 2 2 3 4 4 4 4 3 2 1 0 1 2 2 2 3 1 1 2 2 2 1 1 2 3 4 3 2 3 5 8 11 12 12 12 12 6
2 2 1 2 2 2 1 2 3 1 2 1 1 1 1 1 2 2 1 1 2 2 2 1 2 2 2 4 4 3 3 4 4 6 9 12 12 8
2 2 2 2 1 1 1 2 2 3 2 2 1 1 1 1 2 2 2 2 2 3 3 2 2 2 3 4 4 4 3 3 3 4 4 9 10 11
2 2 2 3 3 3 3 3 3 2 2 1 1 1 1 2 2 2 2 2 2 3 3 2 2 2 3 3 4 4 4 4 3 4 4 5 5 5
3 4 5 6 5 4 3 3 2 1 1 1 0 0 1 1 1 1 2 2 2 3 3 3 3 3 3 4 4 4 4 4 4 5 5 5 4 4
3 3 3 2 2 2 2 2 1 1 1 0 0 0 1 1 2 2 2 2 2 3 4 3 3 3 4 3 3 4 4 4 4 4 5 5 5 4
5 3 2 2 1 1 1 1 1 1 1 0 0 0 1 1 2 2 2 2 2 3 3 3 3 3 2 2 3 3 3 3 4 4 4 5 6 5
3 2 2 1 1 1 0 0 1 1 1 1 1 1 1 1 2 2 2 2 3 3 3 3 2 2 3 4 4 2 3 4 4 4 4 4 5 6
2 2 1 1 0 0 0 0 0 1 1 1 1 1 1 2 2 2 2 3 3 3 3 2 2 2 3 4 4 4 5 4 4 5 5 4 5 7
1 1 1 0 0 0 1 1 1 1 1 1 1 1 2 2 2 2 2 4 4 3 4 3 4 6 3 2 3 4 4 6 7 5 4 4 4 4
1 0 0 0 0 1 1 1 1 1 1 1 2 2 2 2 2 3 3 3 3 3 4 4 3 3 1 2 4 5 5 6 7 9 7 5 3 3
0 0 0 0 1 1 1 1 1 2 2 2 2 2 2 2 2 3 3 3 3 3 3 3 3 2 2 2 3 4 5 6 5 5 5 7 8 9
Wind_Direction
189 188 190 199 186 188 179 178 181 234 259 246 237 250 253 267 292 286 285 293 302 307 308 309 310 311 312 315 316 317 317 318 319 317 315 312 305 303
182 177 187 186 172 170 174 193 189 194 243 252 248 264 277 289 300 295 285 302 305 307 305 306 304 308 308 312 317 319 320 319 318 315 314 315 314 309
181 178 184 180 174 181 169 180 203 174 230 277 283 291 283 287 303 297 294 294 299 307 302 301 305 308 308 314 317 318 317 317 316 316 318 319 318 313
185 179 181 174 175 185 183 189 207 204 200 251 276 285 281 281 291 297 309 313 304 312 314 313 314 316 317 316 314 316 318 319 318 317 317 317 317 315
183 183 182 173 181 190 186 193 215 225 190 205 259 278 292 301 311 308 308 306 307 312 318 322 321 321 321 318 316 319 317 316 314 314 314 315 314 314
182 186 185 182 186 187 190 195 192 179 165 191 254 280 297 303 307 309 311 309 305 316 316 319 322 323 322 320 320 320 318 316 313 314 315 315 314 312
178 185 186 185 189 193 195 192 179 180 192 220 258 287 291 300 290 289 297 308 301 300 307 310 313 311 315 314 314 316 317 318 317 317 317 316 313 309
179 182 181 184 191 197 201 197 190 195 206 219 245 255 267 271 282 287 297 312 302 310 313 306 309 300 301 296 310 317 320 323 322 321 319 317 312 307
181 179 179 183 182 184 184 175 212 239 232 224 232 246 252 254 262 278 282 283 281 300 313 297 305 294 296 308 316 320 327 328 325 322 320 318 315 312
172 180 178 180 186 181 176 183 212 242 255 247 227 241 254 257 253 262 266 279 286 294 301 287 303 296 302 302 316 328 333 332 331 332 331 326 322 319
152 162 178 185 193 183 177 180 194 239 284 257 282 303 322 323 322 324 318 319 305 301 310 290 305 309 300 291 309 329 333 331 331 332 331 330 326 321
143 151 179 195 198 190 182 177 195 221 194 92 29 10 356 350 354 332 255 281 297 290 297 312 308 327 313 296 298 312 322 325 329 329 330 332 332 329
149 147 170 181 189 201 198 183 209 186 138 118 83 20 1 4 354 334 306 264 268 273 290 310 294 297 283 300 301 296 302 307 314 319 324 330 333 335
147 154 161 154 133 111 84 115 97 86 97 94 77 19 356 338 321 316 312 300 271 264 271 264 264 273 285 295 296 307 307 303 308 311 314 322 325 327
112 124 114 96 82 82 80 82 79 90 108 103 83 348 322 305 311 324 331 329 315 299 287 269 254 256 259 272 288 301 309 308 310 314 314 314 310 313
91 97 86 77 66 63 62 55 52 77 98 119 137 312 316 318 322 322 320 322 319 313 304 290 277 254 259 267 270 284 291 296 310 313 311 305 305 302
106 92 84 78 68 60 63 66 56 52 51 56 113 347 329 331 324 325 317 320 310 304 311 315 307 280 252 252 270 276 287 293 298 310 314 311 304 300
102 106 103 100 99 74 61 43 34 34 19 352 321 302 313 317 319 323 323 315 305 303 304 312 327 335 331 288 239 269 288 292 301 304 305 307 309 309
88 103 109 114 104 74 54 7 333 328 322 295 292 297 300 304 308 312 316 314 307 303 304 307 323 335 325 312 302 278 293 304 309 308 303 296 298 304
85 105 107 110 124 157 264 305 303 305 301 295 297 295 290 292 298 300 302 299 300 302 302 302 297 289 277 284 290 295 300 296 296 302 306 302 291 296
74 78 74 62 255 243 252 256 258 266 274 279 278 279 286 290 290 290 292 302 303 297 296 294 285 301 290 290 295 296 296 303 302 297 303 308 309 311
73 69 30 324 286 261 252 249 259 269 267 269 271 273 277 277 277 281 284 290 290 289 290 294 305 313 307 288 291 294 302 310 313 316 308 294 293 299
65 297 289 296 283 273 256 249 259 268 266 267 269 270 271 275 274 276 281 284 289 293 298 304 310 311 302 288 289 294 298 308 316 324 314 314 310 300